Terminal Aerodrome Forecast
Issued by NWS Amarillo, TX

Home | Current Version | Previous Version | Text Only | Print | Product List | Glossary On
Versions: 1 2 3 4 5 6 7 8 9 10 11 12 13 14 15 16 17 18 19 20
000
FTUS44 KAMA 191700
TAFGUY
TAF
KGUY 191720Z 1918/2018 19020G30KT P6SM BKN120
     FM192200 19020G28KT P6SM VCSH BKN060
     FM200400 23011KT P6SM SCT060=

USA.gov is the U.S. government's official web portal to all federal, state and local government web resources and services.